Waarnemingen

Advertentie
Mijn weer
Vlissingen, Nederland (6310): temperatuur & dauwpunt: 17.10.2017 02:00:00 - 23.10.2017 02:00:00 (CEST)Vlissingen, Nederland (6310): temperatuur 5cm: 17.10.2017 02:00:00 - 23.10.2017 02:00:00 (CEST)Vlissingen, Nederland (6310): windsnelheid & windstoten: 17.10.2017 02:00:00 - 23.10.2017 02:00:00 (CEST)Vlissingen, Nederland (6310): windrichting: 17.10.2017 02:00:00 - 23.10.2017 02:00:00 (CEST)Vlissingen, Nederland (6310): luchtdruk: 17.10.2017 02:00:00 - 23.10.2017 02:00:00 (CEST)Vlissingen, Nederland (6310): zicht: 17.10.2017 02:00:00 - 23.10.2017 02:00:00 (CEST)Vlissingen, Nederland (6310): neerslag: 17.10.2017 02:00:00 - 23.10.2017 02:00:00 (CEST)
Datum & Tijd tt [°C] td [°C] tt 5cm [°C] ff [km/u] ff [kn] fx [km/u] fx [kn] dd ppp [hPa] vv [km] rr [mm]
23.10.2017 02:00:00 12,5 6,0 11,8 29 16 43 23 WNW 1016,4 10 0,0
23.10.2017 01:00:00 12,6 5,7 11,5 35 19 50 27 WNW 1016,4 10 0,0
23.10.2017 00:00:00 12,8 5,9 11,9 39 21 54 29 WNW 1015,8 10 0,0
22.10.2017 23:00:00 13,0 5,8 12,1 34 18 54 29 WNW 1015,4 10 0,0
22.10.2017 22:00:00 13,1 5,2 12,0 29 16 54 29 WNW 1014,9 10 0,0
22.10.2017 21:00:00 12,3 6,5 11,0 39 21 54 29 WNW 1014,6 10 0,1
22.10.2017 20:00:00 12,8 5,7 11,5 39 21 58 31 W 1014,1 10 0,0
22.10.2017 19:00:00 12,2 6,6 10,5 42 23 58 31 W 1013,3 7 0,3
22.10.2017 18:00:00 11,6 7,1 10,6 44 24 58 31 W 1013,0 10 0,2
22.10.2017 17:00:00 12,4 7,0 10,1 37 20 58 31 W 1012,3 9 0,2
22.10.2017 16:00:00 11,9 7,6 10,5 42 23 61 33 W 1012,1 7 0,2
22.10.2017 15:00:00 12,0 7,6 11,2 41 22 58 31 W 1011,6 10 0,1
22.10.2017 14:00:00 11,5 8,2 10,9 46 25 65 35 W 1011,2 8 0,7
22.10.2017 13:00:00 10,5 7,3 10,4 42 23 61 33 W 1011,1 7 0,7
22.10.2017 12:00:00 12,0 7,8 11,6 42 23 61 33 W 1010,4 10 0,0
22.10.2017 11:00:00 12,7 7,7 12,1 44 24 61 33 W 1009,6 10 0,0
22.10.2017 10:00:00 12,8 7,1 11,7 37 20 58 31 W 1009,2 10 0,2
22.10.2017 09:00:00 13,0 7,9 12,0 41 22 58 31 W 1008,3 10 0,2
22.10.2017 08:00:00 11,4 10,6 11,2 29 16 47 25 ZW 1007,7 4,3 2,1
22.10.2017 07:00:00 11,6 10,4 11,2 37 20 54 29 ZW 1007,2 9 0,7
22.10.2017 06:00:00 11,7 10,4 11,2 39 21 47 25 ZW 1006,5 10 0,8
22.10.2017 05:00:00 11,6 10,5 11,1 41 22 47 25 ZZW 1006,2 10 0,0
22.10.2017 04:00:00 11,1 10,0 10,7 48 26 58 31 ZZW 1006,0 8 0,2
22.10.2017 03:00:00 10,9 9,6 10,5 55 30 65 35 ZZW 1005,8 5 0,4
22.10.2017 02:00:00 12,0 8,3 11,3 54 29 68 37 ZZW 1005,6 10 0,0
22.10.2017 01:00:00 12,1 8,1 11,6 50 27 65 35 ZZW 1006,2 10 0,0
22.10.2017 00:00:00 12,2 8,3 11,4 48 26 58 31 ZZW 1006,9 10 0,0
21.10.2017 23:00:00 12,6 8,5 11,7 44 24 58 31 ZZW 1007,2 10 0,0
21.10.2017 22:00:00 12,6 8,6 11,8 46 25 58 31 ZZW 1007,4 10 0,0
21.10.2017 21:00:00 12,9 9,1 11,7 42 23 58 31 ZZW 1007,9 10 0,0
21.10.2017 20:00:00 12,4 9,2 11,5 54 29 72 39 ZW 1008,2 10 0,1
21.10.2017 19:00:00 13,8 9,2 12,6 29 16 43 23 ZZW 1008,1 10 0,0
21.10.2017 18:00:00 13,3 9,4 12,7 48 26 61 33 WZW 1008,0 10 0,0
21.10.2017 17:00:00 14,8 9,9 14,6 42 23 50 27 ZW 1008,0 10 0,0
21.10.2017 16:00:00 16,3 9,9 15,8 41 22 54 29 ZZW 1007,6 10 0,0
21.10.2017 15:00:00 16,2 10,2 15,5 48 26 61 33 ZW 1007,9 10 0,0
21.10.2017 14:00:00 16,1 10,4 15,7 41 22 54 29 ZZW 1008,1 10 0,0
21.10.2017 13:00:00 16,3 11,0 16,3 44 24 58 31 ZZW 1008,2 10 0,0
21.10.2017 12:00:00 16,0 12,4 16,3 34 18 58 31 ZZW 1008,3 10 0,0
21.10.2017 11:00:00 14,9 13,1 13,9 29 16 47 25 ZW 1008,3 10 0,1
21.10.2017 10:00:00 14,2 12,7 13,9 37 20 43 23 ZZW 1007,7 10 0,0
21.10.2017 09:00:00 13,7 12,2 13,2 39 21 50 27 ZZW 1007,2 10 0,0
21.10.2017 08:00:00 13,2 12,1 12,6 39 21 - - Z 1007,0 10 0,9
21.10.2017 07:00:00 12,8 11,5 12,3 37 20 47 25 Z 1007,2 5 0,9
21.10.2017 06:00:00 13,2 9,9 12,9 34 18 43 23 Z 1007,5 10 0,0
21.10.2017 05:00:00 13,1 10,1 12,4 31 17 - - Z 1007,8 10 0,0
21.10.2017 04:00:00 13,0 9,6 12,3 35 19 43 23 Z 1008,6 10 0,0
21.10.2017 03:00:00 12,9 9,5 12,3 31 17 36 19 Z 1009,6 10 0,0
21.10.2017 02:00:00 13,1 9,2 12,4 24 13 - - Z 1010,4 10 0,0
21.10.2017 01:00:00 12,7 8,8 12,0 24 13 32 18 Z 1010,9 10 0,0
21.10.2017 00:00:00 12,8 9,2 12,0 24 13 29 16 ZZW 1011,2 10 0,0
20.10.2017 23:00:00 13,2 9,7 12,4 29 16 - - ZZW 1011,6 10 0,0
20.10.2017 22:00:00 12,9 9,4 12,1 26 14 32 18 ZZW 1011,7 10 0,0
20.10.2017 21:00:00 12,9 8,8 12,0 34 18 40 21 ZZW 1011,5 10 0,0
20.10.2017 20:00:00 13,2 8,8 12,2 37 20 50 27 ZW 1011,2 10 0,0
20.10.2017 19:00:00 14,0 9,4 13,2 41 22 50 27 ZW 1010,6 10 0,0
20.10.2017 18:00:00 14,1 9,2 13,4 46 25 58 31 WZW 1010,1 10 0,0
20.10.2017 17:00:00 14,1 10,0 13,5 41 22 58 31 ZW 1009,3 10 0,0
20.10.2017 16:00:00 13,9 11,2 13,4 41 22 58 31 ZW 1008,6 10 0,0
20.10.2017 15:00:00 14,1 10,8 13,5 48 26 61 33 ZW 1007,7 10 0,1
20.10.2017 14:00:00 13,2 12,3 12,9 44 24 54 29 ZW 1007,4 2,8 1,8
20.10.2017 13:00:00 12,6 11,9 12,4 48 26 61 33 ZZW 1006,8 3,0 1,6
20.10.2017 12:00:00 12,8 11,1 12,5 55 30 68 37 ZZW 1005,8 9 0,1
20.10.2017 11:00:00 13,4 10,2 13,2 48 26 72 39 ZZW 1005,1 10 0,0
20.10.2017 10:00:00 13,5 10,3 13,1 48 26 68 37 ZZW 1004,8 10 0,0
20.10.2017 09:00:00 13,5 10,6 12,9 42 23 58 31 ZZW 1004,6 10 0,0
20.10.2017 08:00:00 13,8 11,6 13,0 35 19 47 25 ZZW 1004,0 10 0,0
20.10.2017 07:00:00 14,3 12,4 13,5 35 19 47 25 ZZW 1003,5 10 1,1
20.10.2017 06:00:00 13,1 11,6 12,4 39 21 61 33 Z 1003,5 5 3,8
20.10.2017 05:00:00 15,1 13,2 14,5 34 18 47 25 Z 1003,9 6 1,9
20.10.2017 04:00:00 16,1 13,0 15,2 44 24 61 33 Z 1003,8 10 0,1
20.10.2017 03:00:00 16,6 13,1 15,8 37 20 47 25 Z 1004,1 10 0,0
20.10.2017 02:00:00 16,9 13,7 16,0 34 18 40 21 Z 1005,0 10 0,0
20.10.2017 01:00:00 16,8 14,1 16,0 29 16 36 19 Z 1005,0 10 0,0
20.10.2017 00:00:00 17,3 14,1 16,7 35 19 40 21 Z 1005,1 10 0,0
19.10.2017 23:00:00 18,1 13,7 17,2 34 18 40 21 Z 1005,3 10 0,0
19.10.2017 22:00:00 17,7 13,7 16,4 28 15 32 18 Z 1005,5 10 0,0
19.10.2017 21:00:00 17,1 13,8 16,2 22 12 25 14 Z 1005,9 10 0,0
19.10.2017 20:00:00 17,7 13,8 16,3 26 14 32 18 Z 1006,0 10 0,0
19.10.2017 19:00:00 17,7 14,1 16,6 22 12 25 14 ZZO 1006,1 10 0,0
19.10.2017 18:00:00 19,0 13,8 17,8 28 15 36 19 Z 1006,1 10 0,0
19.10.2017 17:00:00 19,4 13,9 18,6 34 18 43 23 Z 1006,2 10 0,0
19.10.2017 16:00:00 18,5 14,0 18,5 24 13 32 18 ZZO 1006,0 10 0,0
19.10.2017 15:00:00 17,4 14,1 18,0 26 14 29 16 ZO 1006,4 10 0,0
19.10.2017 14:00:00 17,7 13,5 17,7 21 11 32 18 ZZO 1007,3 10 0,0
19.10.2017 13:00:00 17,0 12,6 16,6 28 15 32 18 ZZO 1008,1 10 0,0
19.10.2017 12:00:00 16,0 13,2 16,1 22 12 29 16 ZO 1008,4 10 0,0
19.10.2017 11:00:00 15,4 12,7 15,3 21 11 25 14 OZO 1009,1 10 0,0
19.10.2017 10:00:00 14,7 12,3 14,2 22 12 25 14 ZO 1009,7 10 0,0
19.10.2017 09:00:00 14,5 12,3 13,8 18 10 25 14 OZO 1009,6 10 0,0
19.10.2017 08:00:00 14,6 13,1 13,8 16 9 22 12 OZO 1009,5 7 0,0
19.10.2017 07:00:00 14,8 13,2 13,9 15 8 18 10 O 1009,6 7 0,0
19.10.2017 06:00:00 14,9 12,8 13,6 11 6 14 8 OZO 1010,0 10 0,0
19.10.2017 05:00:00 14,8 13,0 13,6 11 6 18 10 ZZO 1010,4 9 0,0
19.10.2017 04:00:00 15,2 12,9 14,0 15 8 25 14 Z 1010,7 8 0,0
19.10.2017 03:00:00 15,1 13,4 14,1 15 8 18 10 Z 1011,3 8 0,0
19.10.2017 02:00:00 15,4 13,8 14,4 16 9 18 10 Z 1011,4 7 0,0
19.10.2017 01:00:00 15,6 14,1 14,5 15 8 22 12 Z 1011,4 6 0,0
19.10.2017 00:00:00 15,7 14,4 14,2 11 6 14 8 Z 1011,6 6 0,0
18.10.2017 23:00:00 15,5 14,5 14,2 11 6 11 6 ZZO 1011,8 5 0,0
18.10.2017 22:00:00 16,2 14,5 14,8 5 3 7 4 ZO 1011,7 5 0,0
18.10.2017 21:00:00 16,4 14,9 15,6 5 3 7 4 ZZO 1011,7 6 0,0
18.10.2017 20:00:00 16,5 14,8 15,9 8 4 11 6 Z 1011,6 5 0,0
18.10.2017 19:00:00 16,7 14,8 15,9 11 6 11 6 Z 1011,6 6 0,0
18.10.2017 18:00:00 16,8 14,7 16,4 9 5 11 6 Z 1011,5 6 0,0
18.10.2017 17:00:00 17,1 13,9 17,0 9 5 11 6 OZO 1011,4 7 0,0
18.10.2017 16:00:00 16,9 13,6 16,9 9 5 11 6 OZO 1011,6 7 0,0
18.10.2017 15:00:00 16,8 13,4 17,8 11 6 14 8 O 1011,8 7 0,0
18.10.2017 14:00:00 16,3 13,7 17,6 8 4 11 6 O 1012,2 2,8 0,0
18.10.2017 13:00:00 15,8 13,5 18,1 4 2 7 4 ZZO 1012,7 5 -
18.10.2017 12:00:00 13,6 12,8 14,6 9 5 18 10 ZZO 1012,9 1,5 0,0
18.10.2017 11:00:00 13,9 12,7 15,2 15 8 22 12 ZO 1013,0 4,9 0,0
18.10.2017 10:00:00 13,7 12,2 13,8 16 9 22 12 O 1013,0 7 -
18.10.2017 09:00:00 13,2 11,6 12,5 15 8 22 12 O 1013,3 8 0,0
18.10.2017 08:00:00 12,8 11,0 11,8 13 7 22 12 ONO 1013,2 10 0,0
18.10.2017 07:00:00 12,8 11,0 12,0 18 10 25 14 NO 1013,5 10 0,0
18.10.2017 06:00:00 13,4 10,9 12,5 15 8 25 14 ONO 1013,9 10 0,0
18.10.2017 05:00:00 13,6 11,4 12,6 18 10 25 14 NO 1014,1 10 0,0
18.10.2017 04:00:00 13,8 12,0 13,2 15 8 22 12 NNO 1015,0 10 0,0
18.10.2017 03:00:00 13,9 11,6 13,5 11 6 18 10 NNO 1015,3 10 0,0
18.10.2017 02:00:00 14,0 11,9 13,6 11 6 14 8 ONO 1015,8 10 0,0
18.10.2017 01:00:00 13,7 11,8 13,5 11 6 14 8 NO 1016,6 10 0,0
18.10.2017 00:00:00 13,5 11,7 13,2 9 5 14 8 NNO 1016,9 10 0,0
17.10.2017 23:00:00 13,7 11,7 13,2 8 4 11 6 ONO 1017,4 10 0,0
17.10.2017 22:00:00 13,9 11,8 12,2 5 3 7 4 O 1017,6 9 0,0
17.10.2017 21:00:00 14,2 12,1 13,5 8 4 11 6 O 1018,1 10 0,0
17.10.2017 20:00:00 14,4 11,6 12,7 4 2 7 4 - 1018,7 10 0,0
17.10.2017 19:00:00 14,2 11,5 11,8 4 2 4 2 ONO 1018,7 10 0,0
17.10.2017 18:00:00 14,8 11,6 13,8 4 2 7 4 ZZO 1018,9 10 0,0
17.10.2017 17:00:00 15,4 11,0 15,3 5 3 7 4 WNW 1019,4 10 0,0
17.10.2017 16:00:00 15,3 10,9 15,5 8 4 11 6 W 1019,9 10 0,0
17.10.2017 15:00:00 15,1 11,1 15,1 15 8 18 10 W 1020,8 10 0,0
17.10.2017 14:00:00 15,0 12,0 15,4 16 9 22 12 ZW 1021,2 10 0,0
17.10.2017 13:00:00 14,6 12,0 14,4 18 10 22 12 ZW 1021,9 9 0,0
17.10.2017 12:00:00 14,2 11,9 13,8 22 12 25 14 ZW 1021,7 10 0,0
17.10.2017 11:00:00 13,9 11,5 13,6 24 13 29 16 ZZW 1021,7 10 0,0
17.10.2017 10:00:00 13,6 11,3 12,9 21 11 25 14 ZZW 1021,8 9 0,0
17.10.2017 09:00:00 13,6 11,4 12,8 21 11 25 14 ZZW 1021,5 9 0,0
17.10.2017 08:00:00 13,5 11,2 12,6 18 10 25 14 ZZW 1021,4 10 0,0
17.10.2017 07:00:00 13,4 11,5 12,3 16 9 22 12 ZZW 1021,2 10 0,0
17.10.2017 06:00:00 13,6 11,5 12,5 18 10 22 12 ZW 1021,1 10 0,0
17.10.2017 05:00:00 13,9 11,4 12,9 18 10 25 14 ZW 1021,1 10 0,0
17.10.2017 04:00:00 14,4 11,5 13,3 21 11 25 14 ZW 1020,9 10 0,0
17.10.2017 03:00:00 15,0 11,7 14,1 26 14 32 18 ZW 1020,9 10 0,0
17.10.2017 02:00:00 15,5 12,1 14,7 28 15 36 19 ZW 1020,6 10 0,0

tt = temperatuur
td = dauwpunt
tt 5cm = temperatuur 5cm
ff = windsnelheid
fx = windstoten
dd = windrichting
ppp = luchtdruk
vv = zicht
rr = neerslag

Weerstations in de omgeving